Nogales, AZ

5:50 AM MST on February 08, 2016 (GMT -0700)
Nogales International

Weather History for KOLS - November, 2012

Change the Weather History Date:

Wednesday, November 14, 2012

  Actual Average (KTUS) Record (KTUS)
Temperature  
Mean Temperature 58 °F 60 °F  
Max Temperature 78 °F 74 °F 90 °F (1999)
Min Temperature 39 °F 47 °F 24 °F (1916)
Degree Days  
Heating Degree Days 6 5  
Month to date heating degree days 53  
Since 1 July heating degree days 77  
Cooling Degree Days 0 1  
Month to date cooling degree days 23  
Year to date cooling degree days 3142  
Growing Degree Days 8 (Base 50)    
Moisture  
Dew Point 13 °F    
Average Humidity 20    
Maximum Humidity 32    
Minimum Humidity 7    
Precipitation  
Precipitation 0.00 in 0.01 in 1.57 in (1968)
Month to date precipitation 0.23  
Year to date precipitation 10.32  
Sea Level Pressure  
Sea Level Pressure 30.03 in    
Wind  
Wind Speed 5 mph (ESE)    
Max Wind Speed 10 mph    
Max Gust Speed -    
Visibility 10 miles    
Events      
T = Trace of Precipitation, MM = Missing Value Source: NWS Daily Summary

Daily Weather History Graph

Daily Weather History Graph

Search for Another Location

Airport or City:

Trip Planner

Search our weather history database for the weather conditions in past years. The results will help you decide how hot, cold, wet, or windy it might be!

Date:

Astronomy

Nov. 14, 2012 Rise Set
Actual Time 6:50 AM MST 5:24 PM MST
Civil Twilight 6:24 AM MST 5:50 PM MST
Nautical Twilight 5:55 AM MST 6:19 PM MST
Astronomical Twilight 5:26 AM MST 6:48 PM MST
Moon 7:40 AM MST (11/14) 6:20 PM MST (11/14)
Length of Visible Light 11h 25m
Length of Day
10h 34m
New Moon, 1% of the Moon is Illuminated
Nov 14
New Moon
Nov 20
First Quarter
Nov 28
Full
Dec 6
Last Quarter
Dec 13
New

Hourly Weather History & Observations

Time (MST) Temp. Windchill Dew Point Humidity Pressure Visibility Wind Dir Wind Speed Gust Speed Precip Events Conditions
12:54 AM 45.0 °F 40.6 °F 10.0 °F 24% 30.04 in 10.0 mi NE 8.1 mph - N/A   Clear
1:54 AM 42.1 °F 38.4 °F 10.0 °F 27% 30.05 in 10.0 mi NE 5.8 mph - N/A   Clear
2:54 AM 42.1 °F 36.1 °F 10.0 °F 27% 30.05 in 10.0 mi ENE 10.4 mph - N/A   Clear
3:54 AM 41.0 °F 39.0 °F 10.0 °F 28% 30.04 in 10.0 mi SW 3.5 mph - N/A   Clear
4:54 AM 39.9 °F 36.7 °F 10.9 °F 31% 30.05 in 10.0 mi NE 4.6 mph - N/A   Clear
5:54 AM 42.1 °F 37.1 °F 10.9 °F 28% 30.07 in 10.0 mi NE 8.1 mph - N/A   Clear
6:54 AM 39.0 °F 35.7 °F 10.0 °F 30% 30.10 in 10.0 mi ESE 4.6 mph - N/A   Clear
7:54 AM 43.0 °F 41.3 °F 12.0 °F 28% 30.11 in 10.0 mi South 3.5 mph - N/A   Clear
8:54 AM 55.9 °F - 10.0 °F 16% 30.11 in 10.0 mi Calm Calm - N/A   Clear
9:54 AM 64.9 °F - 9.0 °F 11% 30.09 in 10.0 mi Calm Calm - N/A   Clear
10:54 AM 71.1 °F - 8.1 °F 9% 30.06 in 10.0 mi Calm Calm - N/A   Clear
11:54 AM 75.0 °F - 8.1 °F 8% 30.02 in 10.0 mi Variable 3.5 mph - N/A   Clear
12:54 PM 77.0 °F - 8.1 °F 7% 29.99 in 10.0 mi West 3.5 mph - N/A   Clear
1:54 PM 78.1 °F - 7.0 °F 7% 29.97 in 10.0 mi WSW 5.8 mph - N/A   Clear
2:54 PM 78.1 °F - 12.0 °F 8% 29.96 in 10.0 mi Calm Calm - N/A   Clear
3:54 PM 78.1 °F - 12.0 °F 8% 29.95 in 10.0 mi South 5.8 mph - N/A   Clear
4:54 PM 73.9 °F - 16.0 °F 11% 29.97 in 10.0 mi SW 6.9 mph - N/A   Clear
5:54 PM 70.0 °F - 17.1 °F 13% 29.99 in 10.0 mi SW 4.6 mph - N/A   Clear
6:54 PM 57.9 °F - 18.0 °F 21% 30.03 in 10.0 mi East 5.8 mph - N/A   Clear
7:54 PM 55.9 °F - 19.0 °F 24% 30.04 in 10.0 mi East 4.6 mph - N/A   Clear
8:54 PM 55.0 °F - 19.9 °F 25% 30.03 in 10.0 mi East 5.8 mph - N/A   Clear
9:54 PM 53.1 °F - 21.0 °F 29% 30.03 in 10.0 mi East 3.5 mph - N/A   Clear
10:54 PM 52.0 °F - 21.0 °F 30% 30.02 in 10.0 mi Calm Calm - N/A   Clear
11:54 PM 50.0 °F - 21.0 °F 32% 30.01 in 10.0 mi Calm Calm - N/A   Clear